Temp
29 29 28 28 28 29 30 30 30 32 31 30 28 28 27 27 29 28 28 27 28 28 29 28 28 27 26 26 26 26 26 26 25 25 26 26 26 26 26 26 25 25 25 24
28 27 29 29 30 30 29 30 30 32 31 30 28 29 29 27 28 29 28 28 28 28 26 26 27 27 26 26 26 25 26 26 26 27 27 27 26 26 26 26 25 25 25 25
28 30 30 31 31 31 30 30 32 32 29 30 29 28 28 28 29 28 28 29 29 28 27 26 27 27 26 25 25 26 27 27 27 27 26 26 26 26 26 26 26 26 25 25
28 29 32 32 31 30 31 32 34 29 28 28 29 27 28 27 27 28 28 27 27 27 28 27 27 27 26 26 26 27 27 27 27 27 26 26 26 26 26 26 26 26 25 25
29 32 32 31 32 32 31 33 34 30 29 28 30 28 28 27 27 27 28 28 28 26 28 27 27 27 27 27 27 27 27 27 27 27 26 26 27 27 27 26 26 26 25 25
28 30 32 30 33 33 33 33 28 25 25 27 30 28 28 27 30 29 29 29 29 27 28 28 28 28 27 27 26 26 26 27 27 27 27 26 27 27 26 26 27 26 26 25
28 30 30 32 33 31 30 26 26 29 26 27 27 28 28 30 30 31 30 29 30 29 27 26 27 28 28 27 26 26 26 26 27 27 27 27 27 27 27 27 27 27 27 26
28 29 32 32 32 33 32 27 25 30 28 27 26 29 30 30 29 31 32 31 30 29 26 27 27 28 28 27 27 26 26 26 27 27 27 27 27 27 27 27 27 28 27 26
26 29 31 32 32 31 31 30 28 24 23 26 27 30 31 30 30 30 30 29 29 29 27 27 27 28 28 27 27 26 26 26 26 27 27 27 27 27 27 27 27 27 27 26
29 29 31 32 32 32 34 29 29 24 30 31 28 29 29 31 33 31 30 29 29 30 29 27 27 29 28 28 27 27 27 27 28 28 27 27 27 27 27 27 27 27 27 25
28 27 29 31 31 32 29 29 26 24 24 26 27 27 27 29 30 34 31 29 29 30 30 29 28 29 29 28 28 27 27 26 26 27 27 27 27 27 27 27 27 26 26 25
29 24 27 31 31 29 31 30 26 25 29 23 24 27 30 28 28 30 31 31 29 30 30 30 29 29 28 28 28 27 27 26 27 28 27 27 27 27 27 27 27 26 26 25
29 25 25 27 27 28 27 27 26 22 21 23 26 27 26 27 28 29 29 30 28 28 28 28 27 26 27 28 28 27 27 27 27 26 27 26 26 26 27 27 27 25 25 25
25 23 25 25 29 28 29 27 26 24 23 24 24 29 27 27 28 30 29 30 28 27 27 26 26 27 28 27 28 27 27 27 26 26 26 26 26 27 27 27 26 25 25 25
25 26 28 28 28 28 28 26 25 25 25 25 27 26 25 24 26 28 29 28 28 28 27 26 26 26 26 27 28 28 27 27 27 26 26 26 27 26 26 26 25 25 25 25
23 25 27 28 28 28 26 27 25 24 23 24 24 27 22 23 26 26 27 28 27 27 27 28 27 26 26 27 28 29 28 28 27 26 26 26 25 26 26 25 25 25 24 23
24 24 23 26 25 26 25 26 25 23 23 22 22 22 21 23 23 21 21 22 25 26 26 25 25 24 27 28 29 28 29 28 28 27 27 26 26 26 25 25 25 24 23 24
22 22 20 23 25 26 25 25 25 23 23 23 22 22 22 22 22 22 21 21 23 23 25 25 25 26 27 28 28 29 29 29 28 27 26 26 25 25 25 24 25 24 22 23
20 20 20 23 22 24 26 25 25 24 23 22 23 22 22 21 21 22 22 21 21 21 23 24 24 25 26 27 28 29 28 28 28 28 27 27 26 25 25 24 25 24 23 21
20 19 21 20 24 24 24 24 24 23 23 23 22 21 21 21 21 20 20 20 21 23 23 24 23 23 27 27 27 27 26 25 25 25 26 26 26 26 25 25 24 22 22 20
19 19 21 20 22 23 23 23 22 24 23 22 21 20 19 21 20 21 20 21 22 23 24 26 26 23 22 25 26 24 23 22 23 24 25 25 24 24 24 24 22 21 20 19
21 20 20 19 22 23 22 23 24 22 22 21 21 19 20 20 19 19 21 22 23 24 24 23 23 24 22 23 25 22 22 21 23 23 23 23 22 22 21 21 20 19 19 18
21 19 19 20 20 20 19 21 21 19 20 22 21 21 20 20 20 20 20 21 25 27 27 23 22 22 23 23 23 22 22 21 21 21 21 21 20 20 20 20 19 18 19 19
20 17 19 20 21 19 20 20 19 20 20 20 20 20 21 21 21 20 19 19 22 24 24 24 25 28 27 24 22 23 23 23 22 21 20 20 20 20 20 19 19 19 18 17
18 18 18 17 18 19 20 19 20 20 20 20 19 20 21 21 21 21 20 20 21 21 22 22 22 25 27 24 22 23 22 23 22 21 20 20 20 20 20 20 19 19 19 19
16 18 18 19 19 19 19 20 20 20 21 20 22 22 22 22 21 21 20 22 22 22 22 22 21 22 21 21 23 23 23 23 22 20 20 20 20 20 19 19 18 18 18 18
Height
752 771 782 773 772 770 772 774 776 753 745 758 768 771 767 767 765 768 770 771 772 772 769 775 779 784 788 792 795 797 802 805 810 812 813 814 816 819 819 820 820 822 823 825
771 783 761 758 759 765 770 774 768 749 747 756 764 769 762 764 758 756 763 767 769 770 772 773 778 782 785 787 792 797 800 804 807 809 811 813 815 818 818 819 820 821 822 823
780 763 750 756 760 765 764 768 758 758 760 757 764 775 768 760 761 761 761 758 761 765 769 771 774 778 783 786 788 793 797 801 804 807 810 813 815 816 817 818 819 820 821 824
771 753 754 756 762 762 772 742 741 758 774 794 763 806 769 761 766 760 761 759 759 761 763 767 771 777 779 780 785 790 793 798 801 805 808 811 813 813 816 818 819 821 822 824
771 756 758 764 758 749 765 737 739 755 772 778 776 794 770 759 769 760 754 752 751 754 757 763 765 768 771 778 781 786 791 795 799 803 806 809 810 811 815 817 819 820 822 824
761 744 747 750 739 741 736 745 760 774 783 805 778 788 775 767 745 746 745 745 745 750 752 756 760 765 770 775 780 784 788 792 797 800 803 805 807 810 814 815 817 818 821 824
766 755 741 734 748 741 750 781 814 807 819 816 787 790 770 743 731 724 729 733 736 742 747 753 757 763 768 771 776 780 785 788 792 797 800 801 805 809 811 813 814 817 820 822
789 790 745 733 743 751 752 774 813 814 824 813 790 793 765 731 718 710 715 716 727 738 744 748 752 757 762 767 771 776 781 785 788 792 795 799 802 805 808 810 814 816 816 819
793 781 740 731 728 737 756 775 762 807 814 811 797 766 740 729 721 716 719 724 729 733 738 743 747 752 758 763 766 770 775 780 784 787 792 796 799 802 803 806 809 811 814 816
760 782 746 734 728 730 738 749 781 802 806 805 800 784 778 743 729 723 724 725 726 726 731 740 744 748 752 756 762 767 771 775 777 783 787 791 794 798 801 803 805 809 812 812
748 770 765 746 755 756 762 768 777 791 803 818 820 799 747 738 729 717 720 721 724 724 728 733 738 744 747 754 760 763 768 772 777 780 783 787 789 792 796 800 803 806 809 811
745 776 783 761 743 744 748 763 775 801 793 809 806 791 726 728 725 722 717 717 719 721 722 727 732 739 744 749 755 758 762 767 769 773 779 782 784 788 792 796 799 803 805 807
746 777 798 784 770 754 768 766 768 784 795 804 805 786 735 727 721 715 718 713 716 719 723 726 732 736 739 744 748 752 757 758 763 769 773 778 780 783 786 790 794 799 801 803
748 783 786 805 782 774 776 771 768 780 800 803 790 761 748 736 728 715 720 712 714 718 720 725 729 731 734 738 741 745 749 753 758 763 767 770 773 776 780 785 789 793 795 796
757 781 770 771 770 770 771 774 773 780 780 792 771 774 763 752 740 724 718 715 719 721 721 724 728 729 730 734 737 741 745 749 753 757 760 761 764 770 776 779 783 788 789 790
766 782 773 778 770 771 780 772 772 777 780 776 773 763 765 746 733 738 733 726 727 727 725 724 726 727 730 731 732 734 738 741 746 750 752 755 761 764 768 773 777 782 783 785
773 780 792 793 781 779 795 781 777 782 780 782 791 779 768 761 763 753 743 742 736 732 732 730 730 729 728 730 730 731 732 736 739 742 745 750 754 757 760 765 771 774 776 780
778 784 798 801 790 806 784 769 769 778 777 775 775 772 768 764 761 758 752 752 745 742 737 735 734 730 728 727 725 728 731 733 737 739 742 746 749 752 756 762 764 767 771 773
769 784 802 804 808 792 780 775 777 782 781 771 774 769 763 763 765 761 754 752 748 746 744 743 739 735 731 728 726 725 728 729 729 731 734 739 744 748 752 756 759 761 764 767
772 778 787 806 800 811 784 771 768 773 792 766 767 770 766 758 780 773 753 749 747 744 745 746 747 744 736 733 731 729 726 728 731 731 733 737 741 745 748 750 752 755 759 765
795 797 800 806 802 793 776 772 770 794 790 765 764 766 767 765 761 748 745 743 743 742 742 745 744 746 747 742 739 737 736 733 731 732 734 736 739 740 745 747 749 753 757 764
797 803 807 809 805 806 772 770 781 774 764 762 764 767 767 761 756 749 746 743 734 736 740 749 750 743 747 745 739 744 744 743 739 737 736 737 741 743 745 749 754 758 761 766
799 795 800 798 796 777 772 771 764 765 766 761 761 759 761 760 755 750 741 740 730 731 723 746 755 742 745 748 743 744 746 746 742 741 740 740 743 746 750 752 755 762 763 766
786 789 793 787 778 776 769 766 764 762 765 763 762 760 755 755 754 752 749 746 743 736 739 749 752 735 733 750 754 744 746 746 745 745 746 743 745 749 753 757 757 759 764 767
789 788 791 791 778 772 765 762 761 760 761 761 761 759 759 755 751 749 747 745 745 746 747 750 748 740 739 751 748 744 745 744 747 751 750 750 749 751 753 757 758 760 762 765
784 783 790 788 770 771 766 756 757 760 760 761 760 758 753 751 748 748 747 745 745 742 739 742 746 747 748 751 740 743 744 747 750 752 752 751 750 752 755 759 761 763 765 766
Wind_Speed
4 3 7 5 8 6 5 7 10 5 7 6 11 4 10 11 17 17 15 13 12 12 14 21 31 31 32 31 34 35 34 30 32 26 19 18 19 14 10 12 11 12 12 11
6 7 6 5 5 6 8 8 8 7 8 6 6 6 5 13 20 23 19 17 15 14 6 13 23 27 31 37 36 35 37 33 31 26 23 20 18 12 10 11 12 8 7 8
5 7 8 3 7 5 5 5 5 4 5 4 4 4 6 8 4 11 15 17 16 15 10 11 20 28 29 30 38 41 38 32 29 27 23 16 15 12 10 13 7 3 7 5
6 5 2 3 5 3 5 6 3 13 5 4 7 4 6 7 10 13 14 13 13 9 10 11 18 24 29 37 37 40 38 35 31 28 25 23 18 15 11 12 15 7 5 5
8 2 4 5 5 3 9 5 3 5 4 4 2 2 6 8 9 14 16 17 17 11 14 14 19 30 36 30 37 41 38 36 34 31 27 25 23 19 12 8 6 6 6 6
7 2 3 7 4 5 3 3 6 4 2 3 2 4 6 5 14 12 14 18 18 13 13 15 26 28 29 28 28 34 38 38 37 33 31 27 28 22 16 14 14 9 8 8
7 6 4 4 4 4 6 7 4 5 5 4 1 3 8 4 8 13 20 21 19 15 13 12 15 20 23 27 29 32 37 37 38 36 34 30 28 24 21 18 14 8 7 10
3 7 2 3 8 7 4 7 5 3 1 5 3 4 5 6 9 9 13 22 19 16 12 14 13 24 27 29 31 32 36 34 39 39 38 34 31 28 25 21 17 11 12 11
5 5 5 7 2 7 4 3 4 7 3 3 3 6 8 5 11 5 8 12 17 18 15 15 14 25 27 29 32 36 36 37 38 40 39 37 33 30 28 25 21 18 14 13
4 2 2 7 5 2 2 5 3 3 2 1 4 4 4 5 2 6 5 10 14 17 16 12 13 23 27 32 34 34 35 40 43 42 41 40 38 35 32 26 23 22 18 16
6 5 8 3 3 0 6 4 6 5 4 6 2 6 7 9 9 3 7 7 11 17 18 16 14 22 26 28 29 32 31 35 33 39 41 40 40 38 37 33 27 21 19 16
4 5 2 3 2 6 6 4 3 5 4 1 4 6 4 7 8 2 3 4 8 11 16 15 14 20 22 26 28 32 32 33 41 43 38 41 42 39 36 34 33 27 20 20
2 3 3 7 6 6 8 5 2 3 3 6 6 6 4 7 8 6 8 4 6 10 10 8 8 9 19 26 27 31 32 38 38 36 39 37 38 38 38 35 32 27 26 24
6 3 5 5 3 1 2 4 5 4 4 3 6 4 5 10 9 7 3 3 6 8 10 8 7 11 20 24 28 29 34 37 33 35 37 37 39 41 40 35 30 28 31 31
5 3 3 2 1 3 1 5 7 6 2 4 6 5 6 12 12 7 3 6 7 5 6 7 8 9 16 20 26 28 31 30 32 34 34 42 42 38 35 34 31 30 33 36
5 1 3 3 4 5 6 2 6 4 5 2 7 3 9 9 13 11 9 10 10 8 7 4 5 7 10 18 27 32 33 35 35 35 39 38 31 34 35 34 31 32 37 37
2 3 3 2 2 3 4 4 3 4 3 1 5 5 9 6 11 13 17 14 10 8 8 8 7 7 4 17 25 29 36 33 35 37 37 31 33 35 35 34 31 33 37 38
5 4 2 3 1 2 5 4 4 9 3 2 3 5 6 2 5 10 11 9 12 13 11 8 6 12 14 12 8 18 22 23 28 31 30 28 30 31 31 31 33 34 35 38
2 5 3 4 2 2 0 3 2 1 3 2 2 3 3 4 3 4 12 7 4 5 10 15 19 17 18 17 10 4 10 14 24 31 33 31 28 28 29 31 34 35 36 34
5 5 4 2 3 6 5 1 1 0 5 4 2 3 5 7 4 4 8 7 5 9 11 18 21 22 19 21 18 12 8 3 9 15 19 21 23 27 29 32 34 32 35 30
4 4 3 2 1 5 2 6 1 5 6 2 4 4 3 1 5 4 7 4 4 4 14 18 24 21 22 15 13 15 12 12 5 2 7 11 14 21 26 30 31 29 27 24
2 3 0 2 1 5 2 2 1 5 3 2 3 5 5 6 7 7 7 8 1 8 19 18 21 17 17 16 14 11 13 9 6 6 7 6 8 11 16 20 19 18 19 20
1 4 3 6 5 4 4 5 6 3 4 3 1 4 7 6 6 9 7 8 2 11 31 22 9 13 15 14 9 10 9 9 7 5 9 7 8 10 12 17 18 20 21 21
1 2 2 2 3 5 4 5 5 4 4 5 5 8 5 4 5 7 7 7 6 5 12 8 18 9 16 19 7 7 4 5 5 5 7 8 10 12 12 14 19 21 19 17
3 2 2 5 7 6 7 6 5 7 4 7 7 7 7 7 6 6 6 7 10 15 10 7 7 2 11 21 6 4 4 4 2 5 8 11 12 13 13 13 15 17 18 20
5 6 4 5 6 4 7 4 3 3 4 5 4 7 10 9 10 6 9 14 18 20 25 14 25 25 26 21 7 6 6 6 8 11 11 11 11 10 9 10 8 8 8 10
Wind_Direction
340 9 253 248 190 204 243 257 254 260 181 142 193 211 185 199 188 185 191 200 206 210 218 187 184 181 182 188 191 196 197 199 189 194 202 198 205 220 249 228 216 222 229 241
357 258 255 285 269 230 224 244 247 288 151 165 148 219 205 196 195 188 186 197 207 214 203 167 175 176 180 188 191 193 195 192 196 201 194 193 206 221 230 217 224 225 215 224
185 244 325 316 310 310 281 189 253 178 136 354 60 311 194 194 208 194 203 200 205 202 191 171 171 179 182 187 192 196 199 198 197 196 194 197 206 215 212 214 206 237 236 232
238 289 271 331 296 158 311 227 287 132 113 207 143 262 236 168 186 196 192 197 205 187 189 174 174 181 185 196 196 198 199 197 198 197 198 203 209 219 223 233 234 243 206 234
248 285 342 325 258 103 249 318 45 140 124 120 218 39 264 137 180 203 197 200 207 190 182 181 182 186 196 191 196 200 202 200 200 201 205 206 215 226 236 235 205 208 221 203
244 284 235 224 252 218 272 295 49 69 98 36 298 135 284 178 208 198 196 203 203 188 186 187 192 187 191 192 191 198 203 204 204 204 208 211 211 217 228 232 222 246 218 224
317 268 248 185 317 7 73 46 350 359 13 212 307 16 246 270 245 200 185 194 198 185 185 182 177 185 188 187 189 194 201 202 205 206 211 213 215 218 227 233 238 236 224 216
174 337 199 146 189 212 154 149 148 224 212 271 51 233 282 299 271 200 191 189 181 181 176 186 183 187 189 191 191 192 199 203 206 209 214 217 219 220 224 227 232 242 232 215
148 273 297 224 209 138 181 167 180 104 14 35 276 306 315 340 28 63 157 154 176 185 184 188 185 193 192 193 194 196 201 206 208 213 217 221 222 221 221 224 227 236 238 219
173 334 295 296 61 31 118 159 62 16 156 227 300 284 239 322 13 100 136 176 183 186 193 187 198 196 195 196 201 199 203 206 213 215 219 223 225 226 228 228 224 227 233 218
150 119 282 8 32 88 10 8 54 125 127 160 191 266 217 215 235 131 152 177 185 189 194 193 199 200 199 198 198 204 204 208 211 216 220 225 228 230 231 231 229 227 226 212
351 126 187 201 309 352 111 39 123 118 243 280 155 266 269 212 272 294 247 140 174 199 197 193 194 188 194 194 196 203 205 207 215 220 219 225 229 232 233 231 233 226 218 208
149 356 25 348 356 11 55 338 315 108 81 194 145 259 294 273 303 285 228 294 184 177 183 188 161 176 190 200 197 201 204 213 215 215 221 224 227 231 233 233 230 224 215 210
108 77 139 156 194 192 54 357 11 94 75 297 226 242 250 248 247 265 340 195 197 183 179 178 173 193 198 197 202 201 208 214 211 212 217 222 226 230 233 231 225 217 217 214
74 71 94 148 159 116 122 71 35 69 324 176 297 314 356 327 317 297 130 121 101 133 168 182 199 203 198 197 204 209 213 213 211 211 212 223 227 227 227 228 223 217 216 214
5 115 46 22 18 132 76 54 82 75 359 328 322 182 359 318 29 14 22 65 67 61 54 51 223 212 204 206 210 215 218 218 212 212 219 223 220 224 225 223 218 213 214 210
353 101 65 240 321 175 31 316 107 131 53 250 30 276 319 17 34 6 20 21 32 58 52 42 36 29 306 244 224 218 224 221 215 215 223 218 217 221 223 219 214 213 213 213
163 105 97 214 1 187 231 24 81 105 81 83 206 314 334 37 137 41 31 21 27 17 12 18 28 29 27 13 292 248 229 223 223 223 226 222 214 214 216 213 214 211 210 215
152 124 92 141 175 301 347 218 211 31 255 274 298 336 336 24 323 279 16 2 11 16 29 5 2 19 22 28 27 299 258 235 225 229 230 225 218 212 210 212 212 213 213 208
74 78 112 122 138 193 241 1 73 329 296 217 246 321 328 60 65 257 304 324 355 57 43 39 15 359 28 11 6 31 46 324 264 241 232 227 221 217 211 213 208 207 214 204
4 3 87 74 168 294 3 300 295 137 235 213 235 229 266 168 199 190 274 348 294 26 13 10 22 15 356 23 25 34 42 45 49 148 190 195 204 208 207 207 203 202 203 191
154 113 223 75 97 285 28 1 237 220 293 240 247 211 251 244 275 291 272 249 241 9 4 27 7 34 358 358 33 38 35 23 42 94 121 149 165 194 188 193 193 190 183 179
286 175 189 172 220 246 257 219 262 219 227 298 245 248 220 242 246 268 286 302 331 254 324 343 310 41 16 350 17 42 27 20 33 72 99 102 119 144 163 172 165 165 173 176
272 158 207 27 261 249 261 264 248 254 221 268 278 280 231 229 273 278 292 312 289 191 211 265 297 328 6 320 285 83 56 24 31 84 122 127 130 133 147 163 173 176 178 182
212 102 186 273 286 288 270 246 241 265 306 296 284 262 285 255 242 243 275 283 285 289 248 237 264 235 255 264 244 102 114 87 123 150 142 141 143 150 155 167 184 199 206 209
184 189 166 228 221 177 256 260 171 221 258 295 297 285 280 261 254 231 247 247 249 245 257 230 211 211 228 214 160 163 171 180 186 178 178 171 165 165 172 179 187 206 214 213